map of BND home
BND - Airport
Location
City:  Bandar Abbas, Hormozgan, Iran
Name:Bandar Abbas International Airport
ICAO:OIKB
IATA:BND

Details
Type:Airport (Aerodrome, Airfield)
Use:Public/Civil, Military, International (customs port of entry)
Latitude:2713'06"N (27.218317)
Longitude:5622'40"E (56.377850)
Datum:WGS 1984
Elevation:22 ft (7 m)
Variation:2.37E (WMM2015 magnetic declination)
0.05 annual change
Runways:2
Longest:12008 × 148 ft (3660 × 45 m), paved

Time
Time Zone:UTC+3:30 (DST+4:30)
Local Time:

Weather
METAR:OIKB 180430Z 22008KT 3500 HZ FEW030 22/18 Q1014 A2996
TAF:OIKB 172300Z 1800/1906 24008KT 4000 BR SCT030
TEMPO 1800/1804 2000 BR
BECMG 1806/1807 6000
TEMPO 1807/1814 21014KT

Related Locations
Nearby:
Farthest:GMR: 11684 mi / 18804 km
Mangareva [Totegegie], Gambier Islands, PF

Find:

   beyond  
but within

Other Information
Maps:
NOTAMs:
Links:
Sources:

  
  • flag of Iran
  

Sectional Chart

Flight Planning
at skyvector.com

Satellite Image

Google Maps Satellite view

 

Copyright © 2004-2019 Karl L. Swartz. All rights reserved.
The Great Circle Mapper name and logo are trademarks of the Great Circle Mapper.
All other trademarks mentioned herein belong to their respective owners.
Please see credits for attibutions and further copyright information.

  Follow gcmap on Facebook Follow gcmap on Twitter Follow gcmap on Google+ GCmap on LinkedIn

hCard Microformat

Geo Microformat